User: anonymous   Login
Location: Unspecified
(0.0000°N, 0.0000°E)
Time: 19:00:04
(UTC+00:00)
Language:

SAUDISAT 1B - Orbit

View from above orbital plane
View from above orbital plane
View from above satellite
View from above satellite

Ground track
Ground track

The orbit data is extracted from the following two-line orbital elements,

1 26549U 00057E   17084.92209681 +.00000044 +00000-0 +23705-4 0  9994
2 26549 064.5547 019.0544 0053093 239.3796 120.2069 14.83333212891087
Epoch (UTC): 25 March 2017 22:07:49
Eccentricity: 0.0053093
inclination: 64.5547°
perigee height: 581 km
apogee height: 656 km
right ascension of ascending node: 19.0544°
argument of perigee: 239.3796°
revolutions per day: 14.83333212
mean anomaly at epoch: 120.2069°
orbit number at epoch: 89108

The dashed part of the orbit path shows where the satellite is in the earth's shadow,  

DLR